Chippewa, MI

4:35 PM EDT on October 16, 2019 (GMT -0400)
Chippewa County International

Weather History for KCIU - August, 2019

Change the Weather History Date:

Thursday, August 1, 2019

  Actual Average Record
Temperature  
Mean Temperature 62 °F -  
Max Temperature 80 °F 77 °F 91 °F (2007)
Min Temperature 46 °F 51 °F 42 °F (1978)
Degree Days  
Heating Degree Days 2    
Growing Degree Days 12 (Base 50)    
Moisture  
Dew Point 50 °F    
Average Humidity 70    
Maximum Humidity 96    
Minimum Humidity 44    
Precipitation  
Precipitation 0.00 in - - ()
Sea Level Pressure  
Sea Level Pressure 30.20 in    
Wind  
Wind Speed 2 mph (West)    
Max Wind Speed 9 mph    
Max Gust Speed 17 mph    
Visibility 9 miles    
Events      
Averages and records for this station are not official NWS values.
T = Trace of Precipitation, MM = Missing Value Source: NWS Daily Summary

Daily Weather History Graph

Daily Weather History Graph

Search for Another Location

Airport or City:

Astronomy

Aug. 01, 2019 Rise Set
Actual Time 6:19 AM EDT 9:08 PM EDT
Civil Twilight 5:44 AM EDT 9:43 PM EDT
Nautical Twilight 5:00 AM EDT 10:27 PM EDT
Astronomical Twilight 4:07 AM EDT 11:18 PM EDT
Moon 6:41 AM EDT (8/1) 9:53 PM EDT (8/1)
Length of Visible Light 15h 58m
Length of Day
14h 49m
New Moon, 0% of the Moon is Illuminated
Aug 1
New Moon
Aug 7
First Quarter
Aug 15
Full
Aug 23
Last Quarter
Aug 30
New

Hourly Weather History & Observations

Time (EDT) Temp. Dew Point Humidity Pressure Visibility Wind Dir Wind Speed Gust Speed Precip Events Conditions
12:56 AM 55.9 °F 48.0 °F 75% 30.18 in 10.0 mi North 4.6 mph - N/A   Clear
1:56 AM 51.1 °F 46.9 °F 86% 30.19 in 10.0 mi Calm Calm - N/A   Clear
2:56 AM 48.9 °F 46.0 °F 90% 30.21 in 1.0 mi Calm Calm - N/A   Clear
3:05 AM 48.2 °F 46.4 °F 93% 30.20 in 10.0 mi Calm Calm - N/A   Clear
3:56 AM 50.0 °F 46.0 °F 86% 30.21 in 10.0 mi Calm Calm - N/A   Clear
4:56 AM 48.9 °F 46.0 °F 90% 30.21 in 10.0 mi Calm Calm - N/A   Clear
5:56 AM 50.0 °F 46.9 °F 89% 30.21 in 10.0 mi Calm Calm - N/A   Clear
6:41 AM 46.4 °F 44.6 °F 93% 30.21 in 0.8 mi Calm Calm - N/A   Clear
6:51 AM 46.4 °F 44.6 °F 93% 30.21 in 1.8 mi Calm Calm - N/A   Clear
6:52 AM 46.4 °F 44.6 °F 93% 30.21 in 9.0 mi Calm Calm - N/A   Clear
6:56 AM 46.0 °F 45.0 °F 96% 30.21 in 10.0 mi Calm Calm - N/A   Clear
7:56 AM 54.0 °F 50.0 °F 86% 30.22 in 10.0 mi Calm Calm - N/A   Clear
8:56 AM 55.9 °F 52.0 °F 87% 30.24 in 10.0 mi West 3.5 mph - N/A   Clear
9:56 AM 66.0 °F 48.9 °F 54% 30.24 in 10.0 mi Calm Calm - N/A   Clear
10:56 AM 69.1 °F 48.0 °F 47% 30.23 in 10.0 mi Calm Calm - N/A   Clear
11:56 AM 72.0 °F 48.9 °F 44% 30.22 in 10.0 mi Variable 3.5 mph - N/A   Clear
12:56 PM 73.9 °F 52.0 °F 46% 30.21 in 10.0 mi West 6.9 mph - N/A   Clear
1:56 PM 75.9 °F 53.1 °F 45% 30.20 in 10.0 mi NW 4.6 mph - N/A   Clear
2:56 PM 79.0 °F 55.0 °F 44% 30.19 in 10.0 mi Variable 5.8 mph - N/A   Clear
3:56 PM 79.0 °F 55.0 °F 44% 30.17 in 10.0 mi WSW 6.9 mph - N/A   Overcast
4:56 PM 79.0 °F 55.9 °F 45% 30.16 in 10.0 mi WSW 8.1 mph - N/A   Clear
5:56 PM 77.0 °F 57.0 °F 50% 30.16 in 10.0 mi West 9.2 mph - N/A   Clear
6:56 PM 77.0 °F 57.9 °F 52% 30.16 in 10.0 mi WSW 9.2 mph 17.3 mph N/A   Overcast
7:56 PM 73.0 °F 54.0 °F 51% 30.16 in 10.0 mi North 4.6 mph - N/A   Clear
8:56 PM 69.1 °F 57.0 °F 65% 30.16 in 10.0 mi SW 4.6 mph - N/A   Clear
9:56 PM 66.0 °F 55.9 °F 70% 30.17 in 10.0 mi WSW 4.6 mph - N/A   Clear
10:56 PM 64.9 °F 54.0 °F 68% 30.17 in 9.0 mi WSW 3.5 mph - N/A   Clear
11:56 PM 63.0 °F 53.1 °F 70% 30.16 in 6.0 mi WSW 3.5 mph - N/A   Haze